Hochkonig, Austria 16 day weather forecast

Slopes altitude range 800 m - 1900m

Number of lifts: 34 Pistes: 150km

In some cases the lift and piste totals shown are for the ski domain (e.g. Three Valleys) rather than individual resort (e.g. Courchevel)

Overview

The 16 day weather forecast is fully updated 4 times every day.

    • Mon 22 APR 2019
    • Mon 22
    • 11C 20C
    • Tue 23 APR 2019
    • Tue 23
    • 12C 18C
    • Wed 24 APR 2019
    • Wed 24
    • 12C 22C
    • Thu 25 APR 2019
    • Thu 25
    • 11C 22C
    • Fri 26 APR 2019
    • Fri 26
    • 13C 16C
    • Sat 27 APR 2019
    • Sat 27
    • 7C 14C
    • Sun 28 APR 2019
    • Sun 28
    • 8C 16C
    • Mon 29 APR 2019
    • Mon 29
    • 11C 20C
    • Tue 30 APR 2019
    • Tue 30
    • 6C 7C
    • Wed 01 MAY 2019
    • Wed 01
    • 5C 11C
    • Thu 02 MAY 2019
    • Thu 02
    • 1C 12C
    • Fri 03 MAY 2019
    • Fri 03
    • 2C 17C
    • Sat 04 MAY 2019
    • Sat 04
    • 5C 20C
    • Sun 05 MAY 2019
    • Sun 05
    • 8C 23C
    • Mon 06 MAY 2019
    • Mon 06
    • 8C 13C
    • Tue 07 MAY 2019
    • Tue 07
    • 4C 8C

Date:

Time Type 0°C level Temp Chill Snow Cloud Speed Gust Dir Press
3:00 2923m 7°C 7_5 0cm 1% 5mph 6mph 1015mB
6:00 2908m 7°C 7_5 0cm 26% 5mph 16mph 1013mB
9:00 2960m 11°C 11_10 0cm 46% 10mph 16mph 1010mB
12:00 3028m 20°C 20_11 0cm 39% 11mph 16mph 1008mB
15:00 3076m 21°C 21_12 0cm 30% 12mph 18mph 1006mB
18:00 2946m 21°C 21_13 0cm 46% 13mph 33mph 1006mB
21:00 3063m 13°C 13_16 0cm 3% 16mph 36mph 1007mB
0:00 3092m 11°C 11_12 0cm 3% 12mph 30mph 1006mB
3:00 3248m 9°C 9_10 0cm 11% 10mph 28mph 1004mB
6:00 3100m 9°C 9_13 0cm 17% 13mph 28mph 1003mB
9:00 2862m 12°C 12_18 0cm 12% 18mph 28mph 1002mB
12:00 2895m 18°C 18_19 0cm 30% 19mph 26mph 1002mB
15:00 2888m 18°C 18_18 0cm 98% 18mph 30mph 1001mB
18:00 2889m 18°C 18_16 0cm 99% 16mph 32mph 1002mB
21:00 2925m 12°C 12_11 0cm 92% 11mph 27mph 1004mB
0:00 2940m 9°C 9_7 0cm 96% 7mph 17mph 1004mB
3:00 2944m 9°C 9_5 0cm 100% 5mph 11mph 1005mB
6:00 2949m 8°C 8_5 0cm 95% 5mph 12mph 1006mB
9:00 2945m 12°C 12_7 0cm 15% 7mph 9mph 1007mB
12:00 3009m 22°C 22_8 0cm 8% 8mph 10mph 1006mB
15:00 3076m 23°C 23_8 0cm 60% 8mph 12mph 1005mB
18:00 3375m 23°C 23_7 0cm 50% 7mph 14mph 1006mB
21:00 3240m 12°C 12_2 0cm 91% 2mph 3mph 1011mB
0:00 3208m 10°C 10_8 0cm 95% 8mph 18mph 1015mB
3:00 3249m 8°C 8_3 0cm 99% 3mph 4mph 1015mB
6:00 3282m 7°C 7_6 0cm 69% 6mph 12mph 1014mB
9:00 3333m 11°C 11_12 0cm 14% 12mph 18mph 1013mB
12:00 3351m 22°C 22_9 0cm 7% 9mph 12mph 1011mB
15:00 3343m 23°C 23_6 0cm 0% 6mph 8mph 1010mB
18:00 3376m 23°C 23_4 0cm 3% 4mph 5mph 1011mB
21:00 3402m 13°C 13_3 0cm 68% 3mph 4mph 1012mB
0:00 3230m 11°C 11_3 0cm 61% 3mph 4mph 1011mB
3:00 3000m 10°C 10_1 0cm 91% 1mph 2mph 1011mB
6:00 2859m 10°C 10_6 0cm 91% 6mph 12mph 1011mB
9:00 2767m 13°C 13_12 0cm 34% 12mph 17mph 1012mB
12:00 2556m 16°C 16_17 0cm 40% 17mph 24mph 1014mB
15:00 1536m 12°C 12_15 0cm 100% 15mph 26mph 1017mB
18:00 1485m 12°C 12_10 0cm 100% 10mph 21mph 1021mB
21:00 1544m 6°C 6_8 0cm 98% 8mph 21mph 1023mB
0:00 1571m 6°C 6_9 0cm 98% 9mph 23mph 1024mB
3:00 1526m 6°C 6_8 0cm 86% 8mph 20mph 1025mB
6:00 1499m 6°C 6_11 0cm 92% 11mph 21mph 1026mB
9:00 1426m 7°C 7_11 0cm 92% 11mph 17mph 1026mB
12:00 1693m 14°C 14_10 0cm 67% 10mph 17mph 1024mB
15:00 1889m 15°C 15_10 0cm 10% 10mph 18mph 1023mB
18:00 2019m 15°C 15_5 0cm 14% 5mph 10mph 1025mB
21:00 2048m 8°C 8_3 0cm 47% 3mph 5mph 1027mB
0:00 2060m 7°C 7_3 0cm 48% 3mph 3mph 1026mB
3:00 2145m 7°C 7_2 0cm 86% 2mph 3mph 1024mB
6:00 2336m 7°C 7_1 0cm 93% 1mph 12mph 1023mB
9:00 2286m 8°C 8_11 0cm 100% 11mph 21mph 1022mB
12:00 2482m 16°C 16_14 0cm 99% 14mph 24mph 1021mB
15:00 2497m 17°C 17_11 0cm 74% 11mph 21mph 1020mB
18:00 2499m 17°C 17_4 0cm 74% 4mph 7mph 1020mB
21:00 2454m 10°C 10_3 0cm 90% 3mph 5mph 1021mB
0:00 2416m 8°C 8_2 0cm 76% 2mph 3mph 1019mB
3:00 2495m 8°C 8_3 0cm 99% 3mph 4mph 1017mB
6:00 2427m 7°C 7_2 0cm 99% 2mph 7mph 1015mB
9:00 2557m 11°C 11_9 0cm 100% 9mph 19mph 1012mB
12:00 2576m 20°C 20_13 0cm 90% 13mph 25mph 1008mB
15:00 2549m 18°C 18_20 0cm 100% 20mph 43mph 1005mB
18:00 2538m 18°C 18_11 0cm 89% 11mph 35mph 1005mB
21:00 2045m 9°C 9_9 0cm 96% 9mph 32mph 1006mB
0:00 1903m 7°C 7_10 0cm 80% 10mph 28mph 1005mB
3:00 1532m 6°C 6_11 0cm 82% 11mph 26mph 1006mB
6:00 1444m 6°C 6_11 0cm 86% 11mph 22mph 1007mB
9:00 1378m 6°C 6_11 0cm 100% 11mph 22mph 1007mB
12:00 1501m 7°C 7_10 0cm 100% 10mph 19mph 1007mB
15:00 1573m 9°C 9_14 0cm 90% 14mph 27mph 1007mB
18:00 1425m 9°C 9_9 0cm 64% 9mph 24mph 1008mB
21:00 1354m 4°C 4_10 0cm 2% 10mph 27mph 1010mB
0:00 1257m 4°C 4_11 0cm 12% 11mph 27mph 1011mB
3:00 1194m 4°C 4_13 0cm 72% 13mph 26mph 1011mB
6:00 1244m 4°C 4_11 0cm 84% 11mph 22mph 1012mB
9:00 1408m 5°C 5_12 0cm 56% 12mph 18mph 1013mB
12:00 1596m 11°C 11_11 0cm 36% 11mph 17mph 1012mB
15:00 1707m 11°C 11_9 0cm 8% 9mph 15mph 1011mB
18:00 1630m 11°C 11_5 0cm 4% 5mph 12mph 1012mB
21:00 1555m 3°C 3_6 0cm 0% 6mph 18mph 1013mB
0:00 1512m 2°C 2_5 0cm 0% 5mph 12mph 1013mB
Afternoon 0.0416667mm 0.3125 1749m 12°C 12_8 0cm 67% 8mph 12mph 1010mB
Morning 0.192708mm 2.25 1771m 2°C 2_1 0cm 35% 1mph 2mph 1013mB
Afternoon 0mm 0 2143m 17°C 17_5 0cm 46% 5mph 8mph 1009mB
Morning 0.015625mm 0.1875 2674m 7°C 7_3 0cm 61% 3mph 5mph 1009mB
Afternoon 0mm 0 2944m 20°C 20_6 0cm 61% 6mph 9mph 1004mB
Morning 0mm 0 3196m 10°C 10_5 0cm 80% 5mph 7mph 1002mB
Afternoon 0mm 0 3324m 23°C 23_6 0cm 6% 6mph 8mph 998mB
Morning 0mm 0 3223m 13°C 13_6 0cm 41% 6mph 19mph 992mB
Afternoon 0.40625mm 3.3125 1848m 13°C 13_22 0cm 93% 22mph 40mph 998mB
Morning 0.640625mm 0.1875 1492m 6°C 6_22 0cm 99% 22mph 44mph 1004mB
Afternoon 0.0572917mm 0.0625 1321m 8°C 8_15 0cm 99% 15mph 23mph 1014mB
Morning 0.00520833mm 0 1266m 1°C 1_5 0cm 80% 5mph 10mph 1020mB

16 day outlook at a glance

Forecast issued: 22/04/2019 09:05:07

Chat

Your comments and questions. In a resort? Let us know what it's like!


Characters left 250

For terms and conditions see Readers Comments on the Cookie and privacy policy page.